[Iaude] MPEC V160: 2023 VD5 [a=1.43,e=0.49,i=3.5,H=24.5]
    mpec at marsden.cfa.harvard.edu 
    mpec at marsden.cfa.harvard.edu
       
    Fri Nov 10 02:08:11 EST 2023
    
    
  
M.P.E.C. 2023-V160                            Issued 2023 November 10, 07:06 UT
     The Minor Planet Electronic Circulars contain information on unusual
         minor planets, routine data on comets and natural satellites,
         and occasional editorial announcements.  They are published
    on behalf of Division F of the International Astronomical Union by the
          Minor Planet Center, Smithsonian Astrophysical Observatory,
                          Cambridge, MA 02138, U.S.A.
			  
             Prepared using the Tamkin Foundation Computer Network
                              MPC at CFA.HARVARD.EDU
            URL https://www.minorplanetcenter.net/    ISSN 1523-6714
                                    2023 VD5                                    
Observations:
     K23V05D*1C2023 11 08.29735402 36 28.048-04 29 17.81         20.88GVEV160G96
     K23V05D 1C2023 11 08.30256002 36 27.403-04 28 48.32         20.92GVEV160G96
     K23V05D 1C2023 11 08.30776402 36 26.773-04 28 19.02         20.75GVEV160G96
     K23V05D 1C2023 11 08.31296302 36 26.125-04 27 48.85         21.30GVEV160G96
     K23V05D KC2023 11 08.38669102 36 17.230-04 20 54.38         21.24GVEV160I52
     K23V05D KC2023 11 08.38965902 36 16.866-04 20 37.79         20.54GVEV160I52
     K23V05D KC2023 11 08.39260702 36 16.538-04 20 21.26         21.10GVEV160I52
     K23V05D KC2023 11 08.39556302 36 16.207-04 20 04.88         20.84GVEV160I52
     K23V05D KC2023 11 09.20067602 35 07.832-03 08 46.61         21.04GVEV160I52
     K23V05D KC2023 11 09.20263202 35 07.624-03 08 36.67         21.08GVEV160I52
     K23V05D KC2023 11 09.20457302 35 07.422-03 08 26.84         21.09GVEV160I52
     K23V05D KC2023 11 09.20651402 35 07.228-03 08 17.30         20.79GVEV160I52
     K23V05D  C2023 11 09.37364802 34 52.205-02 54 09.49         21.21wXEV160F52
     K23V05D  C2023 11 09.38611202 34 50.842-02 53 07.98         21.12wXEV160F52
     K23V05D  C2023 11 09.39857602 34 49.464-02 52 06.51         20.85wXEV160F52
     K23V05D  C2023 11 09.41101202 34 48.092-02 51 05.27         20.89wXEV160F52
     K23V05D KC2023 11 10.27079302 33 41.148-01 44 10.75         21.52GVEV160I52
     K23V05D KC2023 11 10.28300602 33 39.960-01 43 16.86         20.78GVEV160I52
     K23V05D KC2023 11 10.28582002 33 39.676-01 43 04.58         21.03GVEV160I52
Observer details:
F52 Pan-STARRS 2, Haleakala.  Observers J. Bulger, T. Lowe, P. Minguez, A.
    Schultz, I. Smith.  Measurers K. Chambers, T. de Boer, J. Fairlamb, H.
    Gao, M. Huber, C.-C. Lin, E. Magnier, Y. Ramanjooloo, R. Wainscoat, R.
    Weryk.  1.8-m Ritchey-Chretien + CCD.
G96 Mt. Lemmon Survey.  Observer D. Rankin.  Measurers E. C. Beshore, D. Fay,
    J. B. Fazekas, D. C. Fuls, A. R. Gibbs, A. D. Grauer, H. Groeller, J. K.
    Hogan, R. A. Kowalski, S. M. Larson, G. J. Leonard, D. Rankin, R. L.
    Seaman, F. C. Shelly, K. W. Wierzchos.  1.5-m reflector + 10K CCD.
I52 Steward Observatory, Mt. Lemmon Station.  Observer H. Groeller.  Measurers
    E. C. Beshore, D. Fay, J. B. Fazekas, D. C. Fuls, A. R. Gibbs, A. D.
    Grauer, H. Groeller, J. K. Hogan, R. A. Kowalski, S. M. Larson, G. J.
    Leonard, D. Rankin, R. L. Seaman, F. C. Shelly, K. W. Wierzchos.  1.0-m
    prime focus + CCD.
Orbital elements:
2023 VD5                                                 Earth MOID = 0.0286 AU
Epoch 2023 Sept. 13.0 TT = JDT 2460200.5                MPC                     
M   4.78511              (2000.0)            P               Q                  
n   0.57605460     Peri.  233.52170     +0.67284211     +0.73738306             
a   1.4305190      Node    78.87795     -0.65783972     +0.63320976             
e   0.4919020      Incl.    3.48113     -0.33842339     +0.23518421             
P   1.71           H   24.59          G   0.15           U   8                  
Residuals in seconds of arc
231108 G96  0.1-  0.0     231108 I52  0.3+  0.3-    231109 F52  0.0   0.1+
231108 G96  0.1-  0.0     231109 I52  0.1-  0.0     231109 F52  0.0   0.0
231108 G96  0.1+  0.1-    231109 I52  0.1-  0.1+    231110 I52  0.1+  0.3+
231108 G96  0.0   0.7+    231109 I52  0.1+  0.1+    231110 I52  0.0   0.1-
231108 I52  0.1+  0.1-    231109 I52  0.3+  0.1-    231110 I52  0.2-  0.3-
231108 I52  0.2-  0.1-    231109 F52  0.1-  0.2+
231108 I52  0.1+  0.1-    231109 F52  0.1+  0.1+
Ephemeris:
2023 VD5                 a,e,i = 1.43, 0.49, 3                   q = 0.7268
Date    TT    R. A. (2000) Decl.     Delta      r    Elong.  Phase     V
2023 10 11    13 49 23.2 -33 07 41   0.1386  0.8793    28.5   147.2    27.9
...
2023 10 26    05 50 42.3 -70 49 15   0.04432 0.9940    88.4    89.1    20.9
...
2023 11 03    02 50 09.8 -16 57 33   0.07744 1.0586   147.9    29.9    20.5
...
2023 11 09    02 35 23.4 -03 25 16   0.1236  1.1073   159.4    18.3    21.2
2023 11 10    02 34 01.3 -02 04 02   0.1319  1.1154   160.1    17.6    21.3
2023 11 11    02 32 50.0 -00 51 44   0.1403  1.1235   160.6    17.1    21.5
...
2023 11 17    02 28 20.6 +04 16 50   0.1932  1.1720   159.7    17.0    22.3
...
2023 11 25    02 26 44.9 +08 13 39   0.2695  1.2356   154.3    20.3    23.2
...
2023 12 10    02 31 20.1 +12 22 06   0.4305  1.3507   142.1    26.6    24.6
A. U. Tomatic                (C) Copyright 2023 MPC           M.P.E.C. 2023-V160
    
    
More information about the Iaude
mailing list